Location: *
(28.3744°N, 81.5492°W)
Time: 04:13:48
(UTC+00:00)

SL-4 R/B - Pass Details

Date: 15 June 2025
Orbit: 393 x 546 km, 51.6° (Epoch: 11 July)

Event Time Altitude Azimuth Distance (km) Brightness Sun altitude
Rises 01:18:41 0° 186° (S) 2,671 5.2 -11.0°
Reaches altitude 10° 01:21:29 10° 166° (SSE) 1,797 4.2 -11.5°
Enters shadow 01:22:37 14° 152° (SSE) 1,546 3.8 -11.7°
Exits shadow 01:29:13 - 66° (ENE) 2,508 5.1 -12.9°
Sets 01:29:46 0° 63° (ENE) 2,699 5.3 -13.0°
